Weather Roundup
Issued by NWS Chicago, IL

Home | Current Version | Previous Version | Graphics & Text | Print | Product List | Glossary On
Versions: 1 2 3 4 5 6 7 8 9 10 11 12 13 14 15 16 17 18 19 20 21 22 23 24 25 26 27 28 29 30 31 32 33 34 35 36 37 38 39 40 41 42 43 44 45 46 47 48 49 50
722
NZUS59 KLOT 260309
HRRLOT

CHICAGO AREA WEATHER ROUNDUP
NATIONAL WEATHER SERVICE CHICAGO/ROMEOVILLE IL
1000 PM CDT TUE JUL 25 2017

NOTE: "FAIR" INDICATES FEW OR NO CLOUDS BELOW 12,000 FEET WITH NO
SIGNIFICANT WEATHER AND/OR OBSTRUCTIONS TO VISIBILITY.

* THESE STATIONS ARE NOT UNDER NWS QUALITY CONTROL. THEY ALSO MAY NOT
  REPORT WEATHER SUCH AS PRECIPITATION OR FOG.

ILZ005-006-012>014-019>023-260400-
NORTHEAST ILLINOIS

CITY           SKY/WX    TMP DP  RH WIND       PRES   REMARKS
OHARE          PTCLDY    71  58  63 S8        30.15R
MIDWAY         PTCLDY    75  58  55 SE6       30.15R
AURORA         PTCLDY    68  61  78 SE8       30.14F
LANSING*       CLEAR     69  57  65 CALM      30.16S
JOLIET*        CLEAR     70  62  75 CALM      30.16S
WAUKEGAN       PTCLDY    70  65  84 S7        30.14S
DUPAGE AIRPORT PTCLDY    68  58  70 S8        30.14F
WHEELING       CLEAR     71  60  68 S7        30.15S
MORRIS*        CLEAR     69  61  74 E6        30.13F
LEWIS AIRPORT* CLEAR     68  57  68 SE5       30.16F
NORTHERLY ISL    N/A     72  56  57 CALM        N/A
$$

WIZ051-052-058>065-066-070>072-260400-
SOUTHEAST WISCONSIN

CITY           SKY/WX    TMP DP  RH WIND       PRES   REMARKS
MILWAUKEE      MOCLDY    71  59  65 S9        30.12F
KENOSHA*       PTCLDY    70  61  73 S9        30.14F
RACINE*        MOCLDY    71  62  73 S9        30.15S
WEST BEND      CLOUDY    68  57  68 S6        30.11S
$$

INZ001>003-010>013-019-020-260400-
NORTHWEST INDIANA

CITY           SKY/WX    TMP DP  RH WIND       PRES   REMARKS
GARY*          PTCLDY    64  59  82 SE5       30.17R
MICHIGAN CITY* NOT AVBL
RENSSELAER*    NOT AVBL
VALPARAISO     CLEAR     70  59  68 SE3       30.18R
$$

LMZ740>746-260400-
SOUTHERN LAKE MICHIGAN

STATION/POSITION TIME  SKY/WX   TEMP WIND        PRES    VSBY
                                AIR  DIR/SP/G
                 (UTC)          (F)  (DEG/KT/KT) (MB)    (MI)
HARRISON CRIB    0240            75  180/ 13/ 14   N/A
BURNHAM HARBOR   0300            72                N/A
CALUMET HARBOR   0248            74  150/  4/  6 1020.7R
BURNS HARBOR     0240            73  200/  7/  8 1022.0R
MICHIGAN CITY    0240            71  170/  5/  6   N/A
$$

ABBREVIATIONS USED IN REMARKS
   TC - TEMPERATURE IN CELSIUS
  WCI - WIND CHILL INDEX
   HX - HEAT INDEX
  VSB - VISIBILITY
$$




USA.gov is the U.S. government's official web portal to all federal, state and local government web resources and services.